This demonstration page uses our WeatherBlox Daily Observations layout. Learn more.

Left ArrowRight Arrow

39.08367, -84.50855

Hourly Observations for August 16, 2015

Temp ( °F °C ) Dew Point ( °F °C ) Humidity (%) Winds ( mph kmh ) Pressure ( in mb ) Visibility ( mi km ) Precip ( " mm )
12:53 am 00:53 Clear 66 18.9 66 18.9 100 100 N N/A 30.15 1021 10 16 N/A
1:53 am 01:53 Clear 66 18.9 65 18.3 96 96 N N/A 30.15 1021 10 16 N/A
2:53 am 02:53 Clear 65 18.3 65 18.3 100 100 N N/A 30.14 1021 8 13 N/A
3:24 am 03:24 Clear with Mist and Fog 64 18 64 18 100 100 N N/A 30.12 1020 2 3 N/A
3:37 am 03:37 Clear with Mist and Fog 64 17.8 64 17.8 100 100 N N/A 30.12 1020 1 1 N/A
3:42 am 03:42 Clear with Mist and Fog 64 17.8 64 17.8 100 100 N N/A 30.12 1020 3 4 N/A
3:45 am 03:45 Mostly Clear 64 17.8 64 17.8 100 100 N N/A 30.12 1020 8 13 N/A
3:51 am 03:51 Mostly Clear with Mist and Fog 63 17 63 17 100 100 N N/A 30.12 1020 2 3 N/A
3:53 am 03:53 Clear with Mist and Fog 63 17.2 63 17.2 100 100 N N/A 30.14 1021 2 2 N/A
4:01 am 04:01 Clear with Mist and Fog 64 17.8 64 17.8 100 100 N N/A 30.12 1020 3 5 N/A
4:16 am 04:16 Clear with Mist and Fog 63 17.2 63 17.2 100 100 N N/A 30.12 1020 3 4 N/A
4:25 am 04:25 Clear 64 17.8 64 17.8 100 100 N N/A 30.12 1020 7 11 N/A
4:41 am 04:41 Clear with Mist and Fog 64 17.8 64 17.8 100 100 N N/A 30.12 1020 1 2 N/A
4:47 am 04:47 Clear with Mist and Fog 64 18 64 18 100 100 N N/A 30.12 1020 4 6 N/A
4:53 am 04:53 Clear with Mist and Fog 64 17.8 64 17.8 100 100 N N/A 30.13 1020 6 10 N/A
5:09 am 05:09 Partly Cloudy with Mist and Fog 63 17.2 63 17.2 100 100 NNE 3 6 30.12 1020 5 8 N/A
5:18 am 05:18 Mostly Cloudy with Mist and Fog 64 17.8 64 17.8 100 100 N N/A 30.12 1020 6 10 N/A
5:49 am 05:49 Cloudy 64 18 64 18 100 100 N N/A 30.12 1020 7 11 N/A
5:53 am 05:53 Cloudy 65 18.3 65 18.3 100 100 ENE 3 6 30.13 1020 7 11 N/A
6:00 am 06:00 Cloudy with Mist and Fog 64 18 64 18 100 100 N N/A 30.12 1020 2 2 N/A
6:06 am 06:06 Mostly Cloudy with Fog 64 18 64 18 100 100 N N/A 30.12 1020 0 0 N/A
6:53 am 06:53 Mostly Cloudy with Fog 65 18.3 65 18.3 100 100 N N/A 30.15 1021 0 0 N/A
7:53 am 07:53 Cloudy with Fog 65 18.3 65 18.3 100 100 N N/A 30.17 1022 5 8 N/A
8:50 am 08:50 Cloudy with Mist and Fog 66 19 66 19 100 100 N N/A 30.15 1021 1 1 N/A
8:53 am 08:53 Cloudy with Mist and Fog 67 19.4 67 19.4 100 100 N N/A 30.18 1022 1 1 N/A
8:56 am 08:56 Mostly Cloudy with Mist and Fog 67 19.4 67 19.4 100 100 N N/A 30.15 1021 2 3 N/A
9:19 am 09:19 Partly Cloudy with Mist and Fog 68 20 68 20 100 100 N N/A 30.18 1022 4 6 N/A
9:53 am 09:53 Sunny with Light Rain 72 22.2 69 20.6 91 91 N N/A 30.19 1022 8 13 N/A
10:53 am 10:53 Sunny 79 26.1 70 21.1 74 74 N N/A 30.19 1022 10 16 N/A
11:53 am 11:53 Sunny 82 27.8 69 20.6 65 65 SW 6 9 30.18 1022 10 16 N/A
12:53 pm 12:53 Sunny 84 28.9 67 19.4 57 57 W 6 9 30.16 1022 10 16 N/A
1:53 pm 13:53 Sunny 85 29.4 68 20 57 57 SSE 8 13 30.14 1021 10 16 N/A
2:53 pm 14:53 Sunny 86 30 67 19.4 53 53 SSE 6 9 30.12 1020 10 16 N/A
3:53 pm 15:53 Partly Cloudy 85 29.4 66 18.9 53 53 SW 3 6 30.10 1019 10 16 N/A
4:53 pm 16:53 Partly Cloudy 86 30 65 18.3 49 49 N N/A 30.09 1019 10 16 N/A
5:53 pm 17:53 Mostly Sunny 86 30 67 19.4 53 53 N N/A 30.08 1019 10 16 N/A
6:53 pm 18:53 Sunny 84 28.9 68 20 59 59 S 5 7 30.07 1018 10 16 N/A
7:53 pm 19:53 Mostly Sunny 79 26.1 72 22.2 79 79 N N/A 30.08 1019 10 16 N/A
8:53 pm 20:53 Clear 75 23.9 70 21.1 84 84 N N/A 30.08 1019 10 16 N/A
9:53 pm 21:53 Clear 73 22.8 69 20.6 87 87 N N/A 30.10 1019 10 16 N/A
10:53 pm 22:53 Clear 71 21.7 68 20 90 90 N N/A 30.11 1020 10 16 N/A
11:53 pm 23:53 Clear 71 21.7 69 20.6 94 94 N N/A 30.12 1020 10 16 N/A

Powered by AerisWeather